This is the latest recevied weather packets stored in our database for station/object KE5QKR. If no packets are shown the sender has not sent any weather packets the latest 10 day(s).
| Time | Temp. | Humidity | Pressure | Rain* | Wind** | Luminosity | Snow |
|---|---|---|---|---|---|---|---|
| 1778012103 | 27.78° C | 66% | 1010.5 hPa | 0 mm | - | 210 W/m² | - |
| 1778011801 | 27.78° C | 66% | 1010.5 hPa | 0 mm | - | 483 W/m² | - |
| 1778011499 | 28.33° C | 64% | 1010.5 hPa | 0 mm | - | 649 W/m² | - |
| 1778011194 | 27.78° C | 66% | 1010.3 hPa | 0 mm | - | 705 W/m² | - |
| 1778010892 | 27.78° C | 64% | 1010.8 hPa | 0 mm | - | 543 W/m² | - |
| 1778010589 | 27.78° C | 65% | 1010.7 hPa | 0 mm | - | 584 W/m² | - |
| 1778010286 | 27.78° C | 66% | 1010.7 hPa | 0 mm | - | 566 W/m² | - |
| 1778009986 | 28.33° C | 66% | 1010.6 hPa | 0 mm | - | 510 W/m² | - |
| 1778009684 | 27.78° C | 64% | 1010.8 hPa | 0 mm | - | 530 W/m² | - |
| 1778009381 | 28.33° C | 65% | 1010.7 hPa | 0 mm | - | 660 W/m² | - |
| 1778009080 | 28.33° C | 65% | 1010.9 hPa | 0 mm | - | 723 W/m² | - |
| 1778008777 | 27.78° C | 64% | 1011 hPa | 0 mm | - | 433 W/m² | - |
| 1778008476 | 27.78° C | 65% | 1011.2 hPa | 0 mm | - | 843 W/m² | - |
| 1778008172 | 27.78° C | 65% | 1011.1 hPa | 0 mm | - | 832 W/m² | - |
| 1778007867 | 27.78° C | 65% | 1011.5 hPa | 0 mm | - | 812 W/m² | - |
| 1778007562 | 27.78° C | 66% | 1011.4 hPa | 0 mm | - | 660 W/m² | - |
| 1778007260 | 27.78° C | 67% | 1011.4 hPa | 0 mm | - | 845 W/m² | - |
| 1778006956 | 27.78° C | 66% | 1011.5 hPa | 0 mm | - | 395 W/m² | - |
| 1778006653 | 28.33° C | 65% | 1011.4 hPa | 0 mm | - | 728 W/m² | - |
| 1778006350 | 28.33° C | 66% | 1011.7 hPa | 0 mm | - | 834 W/m² | - |
| 1778006047 | 28.33° C | 63% | 1011.6 hPa | 0 mm | - | 785 W/m² | - |
| 1778005744 | 28.33° C | 66% | 1011.5 hPa | 0 mm | - | 812 W/m² | - |
| 1778005441 | 27.78° C | 65% | 1011.7 hPa | 0 mm | - | 203 W/m² | - |
| 1778005137 | 27.78° C | 66% | 1011.4 hPa | 0 mm | - | 735 W/m² | - |
| 1778004834 | 28.33° C | 66% | 1011.5 hPa | 0 mm | - | 651 W/m² | - |
* Rain latest hour (hover to see other rain measurements)
** Current wind speed in m/s (hover to see current wind gust speed)